Stündliche Wetter Aalen

Heute, 7 März, Sonntag

Zeit Temperatur Niederschläge Wind Luftdruck Luftfeuchtigkeit
00:00 -1°C° 0 mm 1 m/S 729 mmHg 59%
01:00 -1°C° 0 mm 1 m/S 729 mmHg 60%
02:00 -1°C° 0 mm 1 m/S 728 mmHg 60%
03:00 -1°C° 0 mm 1 m/S 728 mmHg 60%
04:00 -1°C° 0 mm 1 m/S 727 mmHg 60%
05:00 -1°C° 0 mm 1 m/S 727 mmHg 61%
06:00 -2°C° 0 mm 1 m/S 727 mmHg 61%
07:00 -4°C° 0 mm 2 m/S 727 mmHg 62%
08:00 -2°C° 0 mm 2 m/S 727 mmHg 58%
09:00 +1°C° 0 mm 2 m/S 727 mmHg 55%
10:00 +4°C° 0 mm 1 m/S 726 mmHg 51%
11:00 +5°C° 0 mm 2 m/S 726 mmHg 50%
12:00 +6°C° 0 mm 2 m/S 726 mmHg 49%
13:00 +8°C° 0 mm 2 m/S 725 mmHg 48%
14:00 +7°C° 0 mm 2 m/S 725 mmHg 50%
15:00 +7°C° 0 mm 2 m/S 724 mmHg 51%
16:00 +7°C° 0 mm 2 m/S 723 mmHg 53%
17:00 +5°C° 0 mm 2 m/S 723 mmHg 60%
18:00 +3°C° 0 mm 2 m/S 723 mmHg 68%
19:00 +1°C° 0 mm 1 m/S 723 mmHg 75%
20:00 +1°C° 0 mm 1 m/S 723 mmHg 75%
21:00 0°C° 0 mm 1 m/S 724 mmHg 74%
22:00 -1°C° 0 mm 0 m/S 724 mmHg 73%
23:00 -1°C° 0 mm 0 m/S 724 mmHg 72%

Morgen, 8 März, Montag

Zeit Temperatur Niederschläge Wind Luftdruck Luftfeuchtigkeit
00:00 -2°C° 0 mm 0 m/S 724 mmHg 71%
01:00 -2°C° 0 mm 0 m/S 724 mmHg 69%
02:00 -2°C° 0 mm 0 m/S 724 mmHg 70%
03:00 -2°C° 0 mm 0 m/S 724 mmHg 71%
04:00 -3°C° 0 mm 0 m/S 723 mmHg 72%
05:00 -2°C° 0 mm 1 m/S 724 mmHg 74%
06:00 -2°C° 0 mm 1 m/S 724 mmHg 75%
07:00 -2°C° 0 mm 1 m/S 724 mmHg 77%
08:00 0°C° 0 mm 1 m/S 724 mmHg 70%
09:00 +2°C° 0 mm 1 m/S 724 mmHg 64%
10:00 +3°C° 0 mm 1 m/S 725 mmHg 58%
11:00 +5°C° 0 mm 1 m/S 725 mmHg 55%
12:00 +6°C° 0 mm 1 m/S 724 mmHg 51%
13:00 +7°C° 0 mm 1 m/S 724 mmHg 48%
14:00 +7°C° 0 mm 1 m/S 724 mmHg 49%
15:00 +6°C° 0 mm 2 m/S 724 mmHg 50%
16:00 +6°C° 0 mm 2 m/S 723 mmHg 51%
17:00 +4°C° 0 mm 2 m/S 723 mmHg 60%
18:00 +2°C° 0 mm 2 m/S 723 mmHg 69%
19:00 -1°C° 0 mm 2 m/S 723 mmHg 79%
20:00 -1°C° 0 mm 2 m/S 723 mmHg 81%
21:00 -2°C° 0 mm 2 m/S 723 mmHg 84%
22:00 0°C° 0 mm 1 m/S 723 mmHg 87%
23:00 0°C° 0 mm 1 m/S 723 mmHg 87%

übermorgen, 9 März, Dienstag

Zeit Temperatur Niederschläge Wind Luftdruck Luftfeuchtigkeit
00:00 -1°C° 0 mm 1 m/S 723 mmHg 88%
01:00 -1°C° 0 mm 1 m/S 723 mmHg 88%
02:00 -1°C° 0 mm 1 m/S 723 mmHg 88%
03:00 -2°C° 0 mm 0 m/S 722 mmHg 87%
04:00 -2°C° 0 mm 0 m/S 722 mmHg 87%
05:00 -1°C° 0 mm 0 m/S 722 mmHg 86%
06:00 -1°C° 0 mm 0 m/S 722 mmHg 85%
07:00 -1°C° 0 mm 0 m/S 723 mmHg 84%
08:00 0°C° 0 mm 0 m/S 723 mmHg 77%
09:00 +2°C° 0 mm 0 m/S 723 mmHg 70%
10:00 +4°C° 0 mm 1 m/S 723 mmHg 64%
11:00 +5°C° 0 mm 1 m/S 723 mmHg 60%
12:00 +5°C° 0 mm 2 m/S 723 mmHg 57%
13:00 +6°C° 0 mm 2 m/S 723 mmHg 53%
14:00 +6°C° 0 mm 2 m/S 723 mmHg 56%
15:00 +5°C° 0 mm 3 m/S 723 mmHg 59%
16:00 +5°C° 0 mm 3 m/S 723 mmHg 61%
17:00 +3°C° 0 mm 3 m/S 723 mmHg 69%
18:00 +3°C° 0 mm 2 m/S 723 mmHg 77%
19:00 +2°C° 0 mm 2 m/S 723 mmHg 85%
20:00 +2°C° 0.1 mm 2 m/S 724 mmHg 89%
21:00 +2°C° 0.1 mm 2 m/S 724 mmHg 92%
22:00 +2°C° 0.1 mm 2 m/S 724 mmHg 96%
23:00 +2°C° 0.1 mm 2 m/S 724 mmHg 96%

10 März, Mittwoch

Zeit Temperatur Niederschläge Wind Luftdruck Luftfeuchtigkeit
00:00 +2°C° 0.1 mm 2 m/S 724 mmHg 96%
01:00 +3°C° 0.1 mm 1 m/S 724 mmHg 97%
02:00 +2°C° 0 mm 2 m/S 724 mmHg 97%
03:00 +2°C° 0 mm 2 m/S 725 mmHg 96%
04:00 +2°C° 0 mm 2 m/S 725 mmHg 96%
05:00 +2°C° 0.1 mm 2 m/S 725 mmHg 96%
06:00 +2°C° 0.1 mm 2 m/S 725 mmHg 96%
07:00 +2°C° 0.1 mm 2 m/S 725 mmHg 96%
08:00 +2°C° 0 mm 2 m/S 726 mmHg 93%
09:00 +3°C° 0 mm 2 m/S 726 mmHg 90%
10:00 +4°C° 0 mm 2 m/S 726 mmHg 87%
11:00 +5°C° 0 mm 2 m/S 726 mmHg 80%
12:00 +6°C° 0 mm 2 m/S 725 mmHg 74%
13:00 +7°C° 0 mm 2 m/S 725 mmHg 68%
14:00 +7°C° 0 mm 2 m/S 725 mmHg 66%
15:00 +7°C° 0 mm 2 m/S 724 mmHg 64%
16:00 +8°C° 0 mm 2 m/S 724 mmHg 62%
17:00 +7°C° 0 mm 2 m/S 724 mmHg 67%
18:00 +5°C° 0 mm 2 m/S 724 mmHg 71%
19:00 +4°C° 0 mm 2 m/S 724 mmHg 76%
20:00 +4°C° 0 mm 2 m/S 724 mmHg 76%
21:00 +4°C° 0 mm 2 m/S 724 mmHg 76%
22:00 +3°C° 0 mm 3 m/S 723 mmHg 76%
23:00 +3°C° 0 mm 3 m/S 723 mmHg 74%

11 März, Donnerstag

Zeit Temperatur Niederschläge Wind Luftdruck Luftfeuchtigkeit
00:00 +3°C° 0 mm 3 m/S 722 mmHg 72%
01:00 +3°C° 0 mm 3 m/S 722 mmHg 71%
02:00 +3°C° 0.2 mm 4 m/S 721 mmHg 72%
03:00 +3°C° 0.2 mm 4 m/S 721 mmHg 73%
04:00 +4°C° 0.2 mm 4 m/S 720 mmHg 74%
05:00 +3°C° 0.2 mm 5 m/S 720 mmHg 74%
06:00 +3°C° 0.2 mm 5 m/S 720 mmHg 73%
07:00 +4°C° 0.2 mm 6 m/S 720 mmHg 73%
08:00 +5°C° 0 mm 7 m/S 720 mmHg 70%
09:00 +6°C° 0 mm 8 m/S 719 mmHg 68%
10:00 +8°C° 0 mm 9 m/S 719 mmHg 65%
11:00 +8°C° 0 mm 9 m/S 719 mmHg 64%
12:00 +10°C° 0 mm 9 m/S 718 mmHg 64%
13:00 +11°C° 0 mm 9 m/S 718 mmHg 63%
14:00 +11°C° 0.1 mm 8 m/S 717 mmHg 67%
15:00 +10°C° 0.1 mm 8 m/S 717 mmHg 71%
16:00 +10°C° 0.1 mm 7 m/S 717 mmHg 75%
17:00 +9°C° 0.6 mm 7 m/S 717 mmHg 80%
18:00 +8°C° 0.6 mm 7 m/S 717 mmHg 84%
19:00 +6°C° 0.6 mm 7 m/S 717 mmHg 89%
20:00 +6°C° 1.5 mm 7 m/S 717 mmHg 90%
21:00 +5°C° 1.5 mm 7 m/S 718 mmHg 91%
22:00 +4°C° 1.5 mm 7 m/S 718 mmHg 91%
23:00 +4°C° 1 mm 7 m/S 719 mmHg 91%

12 März, Freitag

Zeit Temperatur Niederschläge Wind Luftdruck Luftfeuchtigkeit
00:00 +4°C° 1 mm 7 m/S 719 mmHg 91%
01:00 +3°C° 1 mm 7 m/S 720 mmHg 91%
02:00 +3°C° 0.4 mm 6 m/S 720 mmHg 90%
03:00 +2°C° 0.4 mm 6 m/S 721 mmHg 88%
04:00 +2°C° 0.4 mm 6 m/S 721 mmHg 87%
05:00 +1°C° 0 mm 5 m/S 722 mmHg 88%
06:00 +1°C° 0 mm 5 m/S 722 mmHg 89%
07:00 0°C° 0 mm 5 m/S 722 mmHg 89%
08:00 +1°C° 0 mm 5 m/S 723 mmHg 85%
09:00 +2°C° 0 mm 5 m/S 723 mmHg 81%
10:00 +3°C° 0 mm 6 m/S 723 mmHg 77%
11:00 +4°C° 0 mm 6 m/S 723 mmHg 72%
12:00 +5°C° 0 mm 6 m/S 723 mmHg 67%
13:00 +7°C° 0 mm 6 m/S 723 mmHg 62%
14:00 +7°C° 0.1 mm 5 m/S 722 mmHg 62%
15:00 +7°C° 0.1 mm 5 m/S 722 mmHg 61%
16:00 +7°C° 0.1 mm 5 m/S 721 mmHg 60%
17:00 +5°C° 0 mm 4 m/S 721 mmHg 66%
18:00 +4°C° 0 mm 3 m/S 721 mmHg 72%
19:00 +3°C° 0 mm 3 m/S 720 mmHg 78%
20:00 +2°C° 0 mm 3 m/S 720 mmHg 79%
21:00 +2°C° 0 mm 3 m/S 721 mmHg 81%
22:00 +2°C° 0 mm 3 m/S 721 mmHg 82%
23:00 +1°C° 0 mm 3 m/S 720 mmHg 83%
Mehr zeigen

Wir brauchen deine Erlaubnis

Meteoprog und unser Service Anbieter werden persönliche Daten aufbewahren, so wie Cookies, Geräte Bezeichnung oder ähnliche Technologien von deinem Gerät und Prozess, so wie Persönliche Daten Inhalte und Werbungen, genauso wie social Media und den Verkehr zu analysieren.

  • Aufbewahrung und/oder Zugang zu deiner Geräte Informationen.

    Cookies, Geräte Bezeichnung oder andere Informationen, können aufbewahrt oder Zugang zu deinem Gerät erhalten, für den Grund, der oben angegeben wird.

  • Personalisierte Werbung und Inhalte, Messungen, Einblick in das Publikum und Produkt Entwicklung.

    Werbungen und Inhalte können personalisiert werden, basierend auf ein Profil. Mehr Daten können besser personalisierte Werbungen und Inhalte hinzufügen. Werbung und Inhalte können gezeigt und gemessen werden. Einblicke über das Publikum, welche die Werbung gesehen haben und den Inhalt, können abgeleitet werden. So wie Daten können genutzt werden, um es zu verbessern oder die Benutzer Erfahrung zu verbessern das System und die Software.

Wenn du “Ich stimme zu” klickst, erlaubst du uns, die Cookies zu benutzen die Geräte Bezeichnung, den Web oder ähnliche Technologien zu benutzen. Deine Settings, können in deinem Gerät bei deinem Browser geändert werden.

Für den bestimmten Zweck, berechtigten Interessen beruhen darauf, mehr als auf den Inhalt. Du kannst mehr darüber in unseren Privaten und Cookie Politik lesen.